SCP
1 1 1 0 0 0 0 0 0 -0 0 0 0 0 0 0 1 1 1 1 0 0 0 0 0 0 0 0 0 0 0 0 0 0 0 0 0 -0
0 1 1 0 0 0 0 0 0 0 -0 0 0 0 1 1 0 1 1 0 0 0 0 1 0 0 0 0 0 0 0 0 0 0 0 0 0 -0
1 1 1 1 1 0 0 0 0 0 0 0 0 0 1 1 1 1 1 1 1 0 0 0 0 0 0 0 0 0 0 0 0 0 0 0 0 -0
1 1 1 0 1 1 0 1 1 1 0 1 1 1 1 1 2 2 1 0 1 0 0 0 0 0 0 0 0 0 0 0 0 0 0 0 0 0
1 1 1 1 1 1 1 1 1 1 1 1 1 1 1 1 1 2 2 1 1 0 0 0 0 0 0 0 0 0 0 0 0 0 0 0 0 0
1 1 1 1 1 1 1 2 1 1 1 1 1 1 1 1 1 1 1 2 2 1 0 0 0 0 0 0 0 0 0 0 0 0 0 0 0 0
1 1 1 1 1 1 1 2 3 1 1 1 0 0 0 0 1 1 1 1 1 1 1 1 0 0 0 0 0 0 0 0 0 0 0 0 0 0
2 1 1 1 1 1 1 0 1 2 2 1 0 0 1 1 1 1 1 1 1 1 1 0 1 1 1 1 0 0 0 0 0 0 0 0 0 0
2 1 1 0 1 1 1 0 0 0 0 1 1 1 1 1 1 1 1 2 2 1 1 0 1 0 1 0 0 -0 0 0 0 0 0 0 0 0
2 2 2 2 2 2 2 2 2 2 1 1 1 1 1 0 0 0 0 1 0 0 0 0 1 0 1 0 0 0 0 0 0 0 0 0 0 0
2 2 3 2 2 1 2 3 2 2 0 0 0 0 0 0 0 0 -0 0 0 0 1 1 1 1 1 0 0 0 0 0 0 0 0 0 0 0
2 2 1 1 2 1 2 3 2 1 1 1 1 0 0 0 0 0 0 0 0 0 1 0 0 0 0 0 0 0 0 0 0 0 0 0 0 0
4 6 2 0 0 0 0 2 2 1 1 1 0 0 0 0 0 0 0 0 0 0 0 0 0 0 0 0 0 0 0 0 0 0 0 0 0 0
3 1 1 0 0 0 0 0 0 0 0 0 0 0 0 0 0 0 0 0 0 0 -0 -0 0 0 0 0 0 0 0 0 0 0 0 0 0 0
1 0 0 0 0 0 0 0 0 0 0 0 0 0 0 0 0 -0 0 0 0 0 0 0 0 0 0 0 0 0 0 0 0 0 0 0 0 0
0 0 0 0 0 0 0 0 0 0 0 0 0 0 0 0 0 0 0 0 -0 0 0 0 0 0 0 0 0 0 0 0 0 0 0 0 0 0
0 0 0 0 0 0 0 0 0 0 0 0 0 0 0 0 0 0 0 0 0 0 0 0 0 0 0 0 0 0 0 0 0 0 0 0 0 0
0 0 0 0 0 0 0 0 0 0 0 0 0 0 0 0 0 0 0 0 0 0 0 0 0 0 0 0 0 0 0 0 0 0 0 0 0 0
0 0 0 0 0 0 0 0 0 0 0 0 0 0 0 0 0 0 0 0 0 0 0 0 0 0 0 0 0 0 0 0 0 0 0 0 0 0
0 0 0 0 0 0 0 0 0 0 0 0 0 0 0 0 0 0 0 0 0 0 0 0 0 0 0 0 0 0 0 0 0 0 0 0 0 0
0 0 0 0 0 0 0 0 0 0 0 0 0 0 0 0 0 0 0 0 0 0 0 0 0 0 0 0 0 0 0 0 0 0 0 0 0 0
0 -0 -0 -0 0 0 0 0 0 0 0 0 0 0 0 0 0 0 0 0 0 0 0 0 0 0 0 0 0 0 0 0 0 0 0 0 0 0
-0 0 0 0 0 0 0 0 0 0 0 0 0 0 0 0 0 0 0 0 0 0 0 0 0 0 0 0 0 0 0 0 0 0 0 0 0 0
Wind_Speed_500mb
31 31 32 31 30 29 30 30 32 39 37 33 32 29 25 29 35 45 46 51 49 37 43 46 54 60 51 43 41 40 51 42 34 29 22 17 25 33
36 36 39 32 29 30 30 29 30 35 43 37 35 33 35 36 42 45 44 49 45 36 38 47 55 57 45 41 43 39 43 36 32 25 16 13 22 25
43 46 41 38 34 32 33 36 35 33 41 41 37 41 48 44 42 45 42 46 41 41 44 48 53 52 47 38 37 36 35 30 29 21 15 6 7 20
48 46 44 38 43 34 32 33 35 38 36 44 40 42 42 47 48 57 41 38 36 43 38 43 46 50 48 46 41 42 34 25 25 17 10 4 18 21
45 46 46 46 46 37 40 29 29 34 36 36 47 48 50 54 53 51 51 49 45 37 41 41 43 44 50 43 37 36 28 23 22 13 1 9 18 23
52 50 45 47 48 45 35 38 36 37 34 44 49 51 52 54 55 57 49 44 49 46 38 42 37 37 48 41 31 33 22 20 18 11 4 9 16 26
55 51 46 50 44 44 39 35 40 42 43 44 49 52 55 53 52 57 64 55 51 44 37 43 29 33 43 49 39 31 20 18 17 11 9 11 17 23
56 53 46 50 49 49 49 42 41 47 53 47 47 50 61 59 58 62 63 63 61 49 46 41 37 35 48 39 34 30 23 18 16 13 12 13 16 20
55 71 44 43 50 51 50 42 45 47 47 50 55 57 56 56 61 64 63 61 61 57 51 53 38 37 34 37 38 29 26 20 17 16 15 15 16 18
75 62 53 54 60 54 53 42 42 41 46 47 46 56 53 46 51 55 55 53 50 40 34 40 31 30 24 30 40 34 28 24 19 19 18 18 18 20
66 64 60 60 61 67 65 66 66 67 51 47 48 38 36 38 40 44 40 40 39 36 27 30 23 20 22 39 39 26 22 24 23 23 22 21 21 24
60 58 58 61 63 66 64 65 62 55 37 34 40 41 42 41 39 35 36 35 33 30 14 19 21 24 30 25 24 18 19 22 28 26 25 26 26 28
57 55 58 55 50 50 49 52 48 44 38 49 46 35 30 33 27 31 35 31 32 31 27 21 26 29 26 41 37 24 22 23 28 27 28 30 30 31
36 24 47 47 40 42 48 51 53 48 44 49 39 38 42 37 27 34 34 26 30 33 31 29 35 33 27 27 32 24 18 19 22 23 25 30 33 36
19 25 32 35 37 38 36 39 39 38 44 35 36 32 34 23 30 20 24 27 28 29 32 29 27 27 25 23 28 24 13 25 28 24 30 29 27 38
20 24 26 32 39 37 44 42 40 39 31 33 32 27 22 14 14 17 15 15 16 25 23 22 24 27 28 26 23 25 26 26 26 34 40 41 38 30
27 27 32 27 32 32 34 36 30 31 32 29 20 14 13 11 9 11 11 11 12 12 12 25 30 30 22 20 24 25 27 29 35 33 34 39 48 42
26 25 28 23 20 13 13 15 14 15 13 20 16 15 12 11 11 8 13 12 11 10 11 22 26 25 18 18 17 15 17 26 27 32 34 44 44 41
15 10 11 11 13 7 6 12 14 19 26 28 23 26 20 15 13 9 15 11 12 13 13 17 28 22 20 18 14 21 24 27 26 28 35 35 40 44
7 3 7 14 8 13 17 18 16 24 13 12 11 11 10 9 7 7 7 11 14 14 16 15 17 18 20 22 26 29 27 28 26 24 28 36 44 48
2 8 8 9 12 18 18 15 16 14 20 15 14 15 12 7 7 8 8 14 18 11 15 13 17 27 25 25 23 23 34 30 27 25 28 30 35 40
7 7 14 7 6 7 6 5 7 13 16 15 14 13 11 8 7 10 8 9 11 14 17 17 17 17 20 27 26 25 32 40 29 29 25 25 26 21
10 12 10 20 14 15 16 13 12 14 15 15 15 11 11 7 8 8 10 10 11 15 16 21 22 21 24 25 27 26 29 25 39 40 33 31 30 30
Wind_Direction_500mb
249 269 271 265 264 270 275 278 285 293 295 297 302 300 301 301 298 305 305 302 300 317 318 316 321 322 319 321 320 316 323 324 329 324 310 277 241 236
251 253 258 259 264 269 272 275 277 283 289 295 297 298 301 297 298 304 302 304 316 317 316 312 320 325 311 317 323 318 322 323 330 332 330 294 241 234
251 249 246 253 259 264 267 272 274 276 286 295 302 301 292 301 299 297 305 304 311 307 306 322 321 323 310 317 326 323 323 324 331 336 341 309 209 163
244 250 250 251 263 266 269 273 270 275 285 289 296 305 303 303 299 298 307 297 305 301 301 310 303 315 314 313 316 320 317 320 327 333 352 157 156 162
248 249 260 257 254 246 252 261 269 279 284 289 289 296 296 299 305 304 300 297 298 300 314 313 301 303 315 305 316 327 312 317 321 323 334 183 177 190
242 247 255 265 261 257 265 268 276 279 283 295 298 294 297 300 296 293 297 307 302 302 307 303 303 302 316 312 312 322 312 313 311 295 217 194 191 196
237 244 253 260 252 256 256 263 262 273 282 286 291 295 295 298 295 294 292 294 293 294 303 299 310 309 305 308 311 321 311 312 297 270 210 181 187 193
257 248 244 253 260 262 271 273 273 283 288 282 288 290 289 296 294 290 285 287 287 277 290 285 292 287 287 289 292 302 307 296 282 257 212 192 197 213
245 248 240 252 256 256 260 265 275 283 292 294 295 297 301 300 298 299 297 294 288 286 283 284 280 282 293 281 274 288 289 277 266 244 221 205 207 216
240 248 252 250 253 259 261 270 275 272 282 288 288 290 293 299 300 300 299 302 301 290 283 277 287 281 289 270 282 284 275 262 254 241 228 215 208 221
246 251 248 250 247 249 256 261 260 267 277 280 279 281 293 304 305 307 313 303 299 300 272 293 292 290 290 279 291 291 276 257 245 239 230 227 217 219
249 251 254 257 259 259 256 260 266 269 266 259 270 288 297 307 314 305 308 303 305 309 284 297 302 308 311 307 291 278 277 249 241 243 233 232 226 224
243 239 242 246 247 258 267 256 253 250 252 270 282 287 286 301 310 296 302 296 304 294 287 297 301 310 304 304 299 291 274 249 246 248 238 230 227 226
220 241 252 255 261 259 262 259 250 252 257 268 274 268 276 289 294 284 298 299 294 288 292 292 291 298 289 291 292 293 270 261 280 268 251 241 232 225
220 240 247 259 254 254 254 246 247 250 264 263 263 266 276 287 291 316 310 299 298 294 294 303 312 310 306 313 271 288 243 242 258 266 265 280 257 240
247 260 257 261 263 260 253 253 258 259 241 249 250 257 271 274 290 306 318 322 320 330 339 327 323 312 298 289 280 276 278 262 255 255 245 258 274 271
271 266 262 250 257 260 254 254 257 252 246 243 239 234 243 268 292 307 313 326 319 324 337 325 323 328 323 316 309 303 297 286 276 271 260 245 249 262
244 249 248 252 246 250 233 232 241 229 225 238 240 233 236 258 262 287 306 315 312 312 309 294 299 314 328 354 335 315 306 299 290 290 276 261 261 248
229 201 192 200 176 163 177 207 221 222 234 237 226 243 259 264 287 328 335 330 310 311 301 302 316 325 334 322 310 301 315 303 294 276 283 288 264 258
154 250 162 167 206 227 216 209 209 237 244 219 268 258 231 239 269 287 294 296 305 299 318 323 307 320 323 304 303 316 319 320 312 299 279 274 277 277
339 273 262 231 213 206 212 204 196 210 220 233 243 244 246 241 259 283 289 302 320 328 310 313 313 311 319 326 323 317 312 314 309 307 300 286 278 275
258 232 252 205 255 285 281 248 253 250 238 235 219 229 247 254 268 279 285 290 299 301 305 305 310 305 292 290 303 311 311 312 314 318 310 297 285 278
253 261 280 241 235 230 208 222 243 238 241 234 234 234 233 243 258 271 291 295 301 305 310 314 314 305 301 297 297 295 298 297 325 326 324 318 308 298
Wind_Speed_850mb
31 31 32 31 30 29 30 30 32 39 37 33 32 29 25 29 35 45 46 51 49 37 43 46 54 60 51 43 41 40 51 42 34 29 22 17 25 33
36 36 39 32 29 30 30 29 30 35 43 37 35 33 35 36 42 45 44 49 45 36 38 47 55 57 45 41 43 39 43 36 32 25 16 13 22 25
43 46 41 38 34 32 33 36 35 33 41 41 37 41 48 44 42 45 42 46 41 41 44 48 53 52 47 38 37 36 35 30 29 21 15 6 7 20
48 46 44 38 43 34 32 33 35 38 36 44 40 42 42 47 48 57 41 38 36 43 38 43 46 50 48 46 41 42 34 25 25 17 10 4 18 21
45 46 46 46 46 37 40 29 29 34 36 36 47 48 50 54 53 51 51 49 45 37 41 41 43 44 50 43 37 36 28 23 22 13 1 9 18 23
52 50 45 47 48 45 35 38 36 37 34 44 49 51 52 54 55 57 49 44 49 46 38 42 37 37 48 41 31 33 22 20 18 11 4 9 16 26
55 51 46 50 44 44 39 35 40 42 43 44 49 52 55 53 52 57 64 55 51 44 37 43 29 33 43 49 39 31 20 18 17 11 9 11 17 23
56 53 46 50 49 49 49 42 41 47 53 47 47 50 61 59 58 62 63 63 61 49 46 41 37 35 48 39 34 30 23 18 16 13 12 13 16 20
55 71 44 43 50 51 50 42 45 47 47 50 55 57 56 56 61 64 63 61 61 57 51 53 38 37 34 37 38 29 26 20 17 16 15 15 16 18
75 62 53 54 60 54 53 42 42 41 46 47 46 56 53 46 51 55 55 53 50 40 34 40 31 30 24 30 40 34 28 24 19 19 18 18 18 20
66 64 60 60 61 67 65 66 66 67 51 47 48 38 36 38 40 44 40 40 39 36 27 30 23 20 22 39 39 26 22 24 23 23 22 21 21 24
60 58 58 61 63 66 64 65 62 55 37 34 40 41 42 41 39 35 36 35 33 30 14 19 21 24 30 25 24 18 19 22 28 26 25 26 26 28
57 55 58 55 50 50 49 52 48 44 38 49 46 35 30 33 27 31 35 31 32 31 27 21 26 29 26 41 37 24 22 23 28 27 28 30 30 31
36 24 47 47 40 42 48 51 53 48 44 49 39 38 42 37 27 34 34 26 30 33 31 29 35 33 27 27 32 24 18 19 22 23 25 30 33 36
19 25 32 35 37 38 36 39 39 38 44 35 36 32 34 23 30 20 24 27 28 29 32 29 27 27 25 23 28 24 13 25 28 24 30 29 27 38
20 24 26 32 39 37 44 42 40 39 31 33 32 27 22 14 14 17 15 15 16 25 23 22 24 27 28 26 23 25 26 26 26 34 40 41 38 30
27 27 32 27 32 32 34 36 30 31 32 29 20 14 13 11 9 11 11 11 12 12 12 25 30 30 22 20 24 25 27 29 35 33 34 39 48 42
26 25 28 23 20 13 13 15 14 15 13 20 16 15 12 11 11 8 13 12 11 10 11 22 26 25 18 18 17 15 17 26 27 32 34 44 44 41
15 10 11 11 13 7 6 12 14 19 26 28 23 26 20 15 13 9 15 11 12 13 13 17 28 22 20 18 14 21 24 27 26 28 35 35 40 44
7 3 7 14 8 13 17 18 16 24 13 12 11 11 10 9 7 7 7 11 14 14 16 15 17 18 20 22 26 29 27 28 26 24 28 36 44 48
2 8 8 9 12 18 18 15 16 14 20 15 14 15 12 7 7 8 8 14 18 11 15 13 17 27 25 25 23 23 34 30 27 25 28 30 35 40
7 7 14 7 6 7 6 5 7 13 16 15 14 13 11 8 7 10 8 9 11 14 17 17 17 17 20 27 26 25 32 40 29 29 25 25 26 21
10 12 10 20 14 15 16 13 12 14 15 15 15 11 11 7 8 8 10 10 11 15 16 21 22 21 24 25 27 26 29 25 39 40 33 31 30 30
Wind_Direction_850mb
249 269 271 265 264 270 275 278 285 293 295 297 302 300 301 301 298 305 305 302 300 317 318 316 321 322 319 321 320 316 323 324 329 324 310 277 241 236
251 253 258 259 264 269 272 275 277 283 289 295 297 298 301 297 298 304 302 304 316 317 316 312 320 325 311 317 323 318 322 323 330 332 330 294 241 234
251 249 246 253 259 264 267 272 274 276 286 295 302 301 292 301 299 297 305 304 311 307 306 322 321 323 310 317 326 323 323 324 331 336 341 309 209 163
244 250 250 251 263 266 269 273 270 275 285 289 296 305 303 303 299 298 307 297 305 301 301 310 303 315 314 313 316 320 317 320 327 333 352 157 156 162
248 249 260 257 254 246 252 261 269 279 284 289 289 296 296 299 305 304 300 297 298 300 314 313 301 303 315 305 316 327 312 317 321 323 334 183 177 190
242 247 255 265 261 257 265 268 276 279 283 295 298 294 297 300 296 293 297 307 302 302 307 303 303 302 316 312 312 322 312 313 311 295 217 194 191 196
237 244 253 260 252 256 256 263 262 273 282 286 291 295 295 298 295 294 292 294 293 294 303 299 310 309 305 308 311 321 311 312 297 270 210 181 187 193
257 248 244 253 260 262 271 273 273 283 288 282 288 290 289 296 294 290 285 287 287 277 290 285 292 287 287 289 292 302 307 296 282 257 212 192 197 213
245 248 240 252 256 256 260 265 275 283 292 294 295 297 301 300 298 299 297 294 288 286 283 284 280 282 293 281 274 288 289 277 266 244 221 205 207 216
240 248 252 250 253 259 261 270 275 272 282 288 288 290 293 299 300 300 299 302 301 290 283 277 287 281 289 270 282 284 275 262 254 241 228 215 208 221
246 251 248 250 247 249 256 261 260 267 277 280 279 281 293 304 305 307 313 303 299 300 272 293 292 290 290 279 291 291 276 257 245 239 230 227 217 219
249 251 254 257 259 259 256 260 266 269 266 259 270 288 297 307 314 305 308 303 305 309 284 297 302 308 311 307 291 278 277 249 241 243 233 232 226 224
243 239 242 246 247 258 267 256 253 250 252 270 282 287 286 301 310 296 302 296 304 294 287 297 301 310 304 304 299 291 274 249 246 248 238 230 227 226
220 241 252 255 261 259 262 259 250 252 257 268 274 268 276 289 294 284 298 299 294 288 292 292 291 298 289 291 292 293 270 261 280 268 251 241 232 225
220 240 247 259 254 254 254 246 247 250 264 263 263 266 276 287 291 316 310 299 298 294 294 303 312 310 306 313 271 288 243 242 258 266 265 280 257 240
247 260 257 261 263 260 253 253 258 259 241 249 250 257 271 274 290 306 318 322 320 330 339 327 323 312 298 289 280 276 278 262 255 255 245 258 274 271
271 266 262 250 257 260 254 254 257 252 246 243 239 234 243 268 292 307 313 326 319 324 337 325 323 328 323 316 309 303 297 286 276 271 260 245 249 262
244 249 248 252 246 250 233 232 241 229 225 238 240 233 236 258 262 287 306 315 312 312 309 294 299 314 328 354 335 315 306 299 290 290 276 261 261 248
229 201 192 200 176 163 177 207 221 222 234 237 226 243 259 264 287 328 335 330 310 311 301 302 316 325 334 322 310 301 315 303 294 276 283 288 264 258
154 250 162 167 206 227 216 209 209 237 244 219 268 258 231 239 269 287 294 296 305 299 318 323 307 320 323 304 303 316 319 320 312 299 279 274 277 277
339 273 262 231 213 206 212 204 196 210 220 233 243 244 246 241 259 283 289 302 320 328 310 313 313 311 319 326 323 317 312 314 309 307 300 286 278 275
258 232 252 205 255 285 281 248 253 250 238 235 219 229 247 254 268 279 285 290 299 301 305 305 310 305 292 290 303 311 311 312 314 318 310 297 285 278
253 261 280 241 235 230 208 222 243 238 241 234 234 234 233 243 258 271 291 295 301 305 310 314 314 305 301 297 297 295 298 297 325 326 324 318 308 298